Weather History for Hickory, NC

Change the Weather History Date:

Friday, January 18, 2013

  Actual Average Record
Temperature  
Mean Temperature 38 °F -  
Max Temperature 46 °F 48 °F 67 °F (1990)
Min Temperature 30 °F 29 °F 8 °F (1977)
Degree Days  
Heating Degree Days 27    
Moisture  
Dew Point 24 °F    
Average Humidity 60    
Maximum Humidity 92    
Minimum Humidity 34    
Precipitation  
Precipitation 0.00 in - - ()
Sea Level Pressure  
Sea Level Pressure 30.39 in    
Wind  
Wind Speed 2 mph (NNW)    
Max Wind Speed 7 mph    
Max Gust Speed -    
Visibility 10 miles    
Events      
Averages and records for this station are not official NWS values.
T = Trace of Precipitation, MM = Missing Value Source: NWS Daily Summary

Daily Weather History Graph

Daily Weather History Graph

Search for Another Location

Airport:

Trip Planner

Search our weather history database for the weather conditions in past years. The results will help you decide how hot, cold, wet, or windy it might be!

Date:

Astronomy

Jan. 18, 2013 Rise Set
Actual Time 7:33 AM EST 5:38 PM EST
Civil Twilight 7:06 AM EST 6:06 PM EST
Nautical Twilight 6:34 AM EST 6:37 PM EST
Astronomical Twilight 6:04 AM EST 7:08 PM EST
Moon 11:28 AM EST (1/18) 12:12 AM EST (1/18)
Length of Visible Light 11h 00m
Length of Day
10h 05m
Waxing Crescent, 47% of the Moon is Illuminated
Jan 18
Waxing Crescent
Jan 18
First Quarter
Jan 26
Full
Feb 3
Last Quarter
Feb 10
New

Hourly Weather History & Observations

Time (EST) Temp. Windchill Dew Point Humidity Pressure Visibility Wind Dir Wind Speed Gust Speed Precip Events Conditions
12:53 AM 32.0 °F - 30.0 °F 92% 30.20 in 10.0 mi Calm Calm - N/A   Clear
1:53 AM 33.1 °F - 28.9 °F 85% 30.22 in 10.0 mi Calm Calm - N/A   Clear
2:53 AM 34.0 °F 29.8 °F 26.1 °F 73% 30.26 in 10.0 mi NW 4.6 mph - N/A   Clear
3:53 AM 33.1 °F 26.9 °F 25.0 °F 72% 30.26 in 10.0 mi NW 6.9 mph - N/A   Clear
4:53 AM 33.1 °F 27.7 °F 24.1 °F 70% 30.27 in 10.0 mi NNW 5.8 mph - N/A   Clear
5:53 AM 30.9 °F - 23.0 °F 72% 30.29 in 10.0 mi Calm Calm - N/A   Clear
6:53 AM 33.1 °F - 21.0 °F 61% 30.31 in 10.0 mi Calm Calm - N/A   Clear
7:53 AM 30.0 °F - 21.9 °F 72% 30.35 in 10.0 mi Calm Calm - N/A   Clear
8:53 AM 35.1 °F - 24.1 °F 64% 30.40 in 10.0 mi Calm Calm - N/A   Clear
9:53 AM 37.0 °F 32.4 °F 24.1 °F 59% 30.44 in 10.0 mi NW 5.8 mph - N/A   Clear
10:53 AM 39.9 °F 35.1 °F 25.0 °F 55% 30.47 in 10.0 mi NNW 6.9 mph - N/A   Clear
11:53 AM 43.0 °F 38.8 °F 25.0 °F 49% 30.45 in 10.0 mi North 6.9 mph - N/A   Clear
12:53 PM 45.0 °F 42.6 °F 21.0 °F 39% 30.44 in 10.0 mi NNE 4.6 mph - N/A   Clear
1:53 PM 46.9 °F - 21.0 °F 36% 30.43 in 10.0 mi Calm Calm - N/A   Clear
2:53 PM 46.9 °F - 21.0 °F 36% 30.43 in 10.0 mi Calm Calm - N/A   Clear
3:53 PM 46.9 °F - 19.9 °F 34% 30.43 in 10.0 mi Calm Calm - N/A   Clear
4:53 PM 46.9 °F - 21.9 °F 37% 30.44 in 10.0 mi Calm Calm - N/A   Clear
5:53 PM 43.0 °F - 21.9 °F 43% 30.46 in 10.0 mi Calm Calm - N/A   Clear
6:53 PM 39.9 °F - 23.0 °F 51% 30.47 in 10.0 mi Calm Calm - N/A   Clear
7:53 PM 39.9 °F - 24.1 °F 53% 30.48 in 10.0 mi Calm Calm - N/A   Clear
8:53 PM 35.1 °F - 25.0 °F 67% 30.48 in 10.0 mi Calm Calm - N/A   Clear
9:53 PM 35.1 °F - 27.0 °F 72% 30.48 in 10.0 mi Calm Calm - N/A   Clear
10:53 PM 33.1 °F - 26.1 °F 75% 30.48 in 10.0 mi Calm Calm - N/A   Clear
11:53 PM 32.0 °F - 26.1 °F 79% 30.46 in 10.0 mi Calm Calm - N/A   Clear